Weather History for KANK - April, 2014

Change the Weather History Date:

Thursday, April 17, 2014

  Actual Average (KGUC) Record (KGUC)
Temperature  
Mean Temperature 44 °F -  
Max Temperature 61 °F 51 °F 66 °F (2001)
Min Temperature 27 °F 23 °F 12 °F (1999)
Degree Days  
Heating Degree Days 21    
Moisture  
Dew Point 26 °F    
Average Humidity 63    
Maximum Humidity 96    
Minimum Humidity 12    
Precipitation  
Precipitation 0.00 in - - ()
Sea Level Pressure  
Sea Level Pressure 30.20 in    
Wind  
Wind Speed 5 mph (South)    
Max Wind Speed 17 mph    
Max Gust Speed 25 mph    
Visibility 10 miles    
Events      
Averages and records for this station are not official NWS values.
T = Trace of Precipitation, MM = Missing Value Source: NWS Daily Summary

Daily Weather History Graph

Daily Weather History Graph

Search for Another Location

Airport or City:

Trip Planner

Search our weather history database for the weather conditions in past years. The results will help you decide how hot, cold, wet, or windy it might be!

Date:

Astronomy

Apr. 17, 2014 Rise Set
Actual Time 6:25 AM MDT 7:42 PM MDT
Civil Twilight 5:57 AM MDT 8:10 PM MDT
Nautical Twilight 5:24 AM MDT 8:43 PM MDT
Astronomical Twilight 4:50 AM MDT 9:18 PM MDT
Moon 10:29 PM MDT (4/17) 8:00 AM MDT (4/17)
Length of Visible Light 14h 12m
Length of Day
13h 17m
Waning Gibbous, 93% of the Moon is Illuminated
Apr 17
Waning Gibbous
Apr 22
Last Quarter
Apr 29
New
May 6
First Quarter
May 14
Full

Hourly Weather History & Observations

Time (MDT) Temp. Windchill Dew Point Humidity Pressure Visibility Wind Dir Wind Speed Gust Speed Precip Events Conditions
12:15 AM 32.9 °F 25.9 °F 32.0 °F 96% 30.20 in 10.0 mi ESE 8.1 mph - N/A   Overcast
12:35 AM 32.9 °F 27.5 °F 31.1 °F 93% 30.20 in 10.0 mi ESE 5.8 mph - N/A   Overcast
12:55 AM 32.0 °F 27.5 °F 30.9 °F 96% 30.20 in 10.0 mi SE 4.6 mph - N/A   Scattered Clouds
1:15 AM 32.0 °F - 30.6 °F 94% 30.19 in 10.0 mi Calm Calm - N/A   Scattered Clouds
1:35 AM 32.0 °F - 30.7 °F 95% 30.20 in 10.0 mi Calm Calm - N/A   Mostly Cloudy
1:55 AM 32.0 °F 28.7 °F 30.7 °F 95% 30.20 in 10.0 mi SSE 3.5 mph - N/A   Overcast
2:15 AM 32.2 °F 27.7 °F 30.9 °F 95% 30.20 in 10.0 mi SSE 4.6 mph - N/A   Overcast
2:35 AM 32.4 °F 26.9 °F 31.1 °F 95% 30.20 in 10.0 mi SSE 5.8 mph - N/A   Overcast
2:55 AM 32.5 °F 29.3 °F 31.1 °F 94% 30.20 in 10.0 mi SSE 3.5 mph - N/A   Overcast
3:15 AM 32.4 °F - 30.9 °F 94% 30.20 in 10.0 mi Calm Calm - N/A   Overcast
3:35 AM 32.5 °F - 31.1 °F 94% 30.20 in 10.0 mi Calm Calm - N/A   Overcast
3:55 AM 32.7 °F 28.3 °F 31.5 °F 95% 30.20 in 10.0 mi SE 4.6 mph - N/A   Overcast
4:15 AM 32.5 °F 29.3 °F 31.5 °F 96% 30.20 in 10.0 mi SE 3.5 mph - N/A   Overcast
4:35 AM 32.4 °F 29.1 °F 31.1 °F 95% 30.20 in 10.0 mi SSE 3.5 mph - N/A   Mostly Cloudy
4:55 AM 32.2 °F - 31.1 °F 96% 30.20 in 10.0 mi Calm Calm - N/A   Mostly Cloudy
5:15 AM 32.0 °F - 30.7 °F 95% 30.21 in 10.0 mi Calm Calm - N/A   Mostly Cloudy
5:35 AM 31.1 °F - 29.3 °F 93% 30.21 in 10.0 mi Calm Calm - N/A   Scattered Clouds
5:55 AM 30.2 °F - 28.6 °F 94% 30.22 in 10.0 mi Calm Calm - N/A   Clear
6:15 AM 29.3 °F 24.3 °F 27.9 °F 94% 30.22 in 10.0 mi WSW 4.6 mph - N/A   Clear
6:35 AM 27.9 °F 24.0 °F 25.7 °F 92% 30.23 in 10.0 mi WSW 3.5 mph - N/A   Clear
6:55 AM 28.4 °F 23.3 °F 25.7 °F 90% 30.24 in 10.0 mi WSW 4.6 mph - N/A   Mostly Cloudy
7:15 AM 30.2 °F 25.4 °F 26.6 °F 86% 30.24 in 10.0 mi SW 4.6 mph - N/A   Scattered Clouds
7:35 AM 32.0 °F - 27.3 °F 83% 30.25 in 10.0 mi Calm Calm - N/A   Clear
7:55 AM 32.9 °F - 29.3 °F 87% 30.25 in 10.0 mi Calm Calm - N/A   Clear
8:15 AM 33.3 °F - 30.6 °F 90% 30.25 in 10.0 mi Calm Calm - N/A   Clear
8:35 AM 34.7 °F - 30.7 °F 85% 30.26 in 10.0 mi Calm Calm - N/A   Clear
8:55 AM 35.8 °F 31.9 °F 31.6 °F 85% 30.26 in 10.0 mi NNE 4.6 mph - N/A   Scattered Clouds
9:15 AM 35.8 °F 31.9 °F 30.9 °F 82% 30.27 in 10.0 mi North 4.6 mph - N/A   Scattered Clouds
9:35 AM 37.9 °F 34.4 °F 31.8 °F 79% 30.27 in 10.0 mi NE 4.6 mph - N/A   Scattered Clouds
10:15 AM 39.2 °F - 30.2 °F 70% 30.27 in 10.0 mi Calm Calm - N/A   Scattered Clouds
10:35 AM 41.7 °F 37.3 °F 30.6 °F 65% 30.26 in 10.0 mi NNE 6.9 mph - N/A   Clear
10:55 AM 42.8 °F 40.1 °F 30.6 °F 62% 30.26 in 10.0 mi NNW 4.6 mph - N/A   Clear
11:15 AM 43.0 °F - 29.8 °F 60% 30.25 in 10.0 mi Calm Calm - N/A   Clear
11:35 AM 45.9 °F - 30.0 °F 54% 30.25 in 10.0 mi Calm Calm - N/A   Clear
11:55 AM 47.8 °F - 30.2 °F 50% 30.24 in 10.0 mi NNE 5.8 mph - N/A   Clear
12:15 PM 47.8 °F - 29.7 °F 49% 30.23 in 10.0 mi ENE 4.6 mph - N/A   Clear
12:35 PM 50.4 °F - 31.3 °F 48% 30.21 in 10.0 mi ESE 9.2 mph - N/A   Clear
12:55 PM 51.3 °F - 30.4 °F 45% 30.20 in 10.0 mi ESE 3.5 mph - N/A   Clear
1:15 PM 53.1 °F - 29.1 °F 40% 30.20 in 10.0 mi SSE 5.8 mph - N/A   Clear
1:35 PM 56.1 °F - 28.0 °F 34% 30.19 in 10.0 mi ESE 10.4 mph 17.3 mph N/A   Clear
1:55 PM 55.8 °F - 26.4 °F 32% 30.18 in 10.0 mi East 10.4 mph 18.4 mph N/A   Clear
2:15 PM 56.7 °F - 22.6 °F 27% 30.19 in 10.0 mi WNW 5.8 mph - N/A   Clear
2:35 PM 61.3 °F - 13.5 °F 15% 30.18 in 10.0 mi South 5.8 mph 18.4 mph N/A   Clear
2:55 PM 61.9 °F - 9.9 °F 13% 30.17 in 10.0 mi WSW 16.1 mph - N/A   Clear
3:15 PM 60.6 °F - 8.1 °F 12% 30.16 in 10.0 mi West 4.6 mph 21.9 mph N/A   Clear
3:35 PM 61.5 °F - 8.1 °F 12% 30.15 in 10.0 mi West 13.8 mph 21.9 mph N/A   Clear
3:55 PM - - - N/A% 30.15 in 10.0 mi SW 10.4 mph 18.4 mph N/A   Clear
4:15 PM - - - N/A% 30.15 in 10.0 mi West 15.0 mph 24.2 mph N/A   Clear
4:35 PM 61.5 °F - 10.4 °F 13% 30.15 in 10.0 mi WSW 17.3 mph 25.3 mph N/A   Clear
4:55 PM 61.9 °F - 10.0 °F 13% 30.15 in 10.0 mi WSW 11.5 mph 23.0 mph N/A   Clear
5:15 PM - - - N/A% 30.15 in 10.0 mi West 10.4 mph 20.7 mph N/A   Clear
5:35 PM - - - N/A% 30.15 in 10.0 mi SW 16.1 mph 25.3 mph N/A   Clear
6:15 PM 60.8 °F - 12.6 °F 15% 30.15 in 10.0 mi WSW 10.4 mph - N/A   Clear
6:35 PM 59.9 °F - 13.1 °F 16% 30.15 in 10.0 mi West 11.5 mph 19.6 mph N/A   Clear
6:55 PM 59.7 °F - 14.4 °F 17% 30.15 in 10.0 mi West 10.4 mph - N/A   Clear
7:15 PM 58.5 °F - 15.1 °F 18% 30.15 in 10.0 mi WSW 9.2 mph - N/A   Clear
7:35 PM 56.5 °F - 15.4 °F 20% 30.16 in 10.0 mi WSW 9.2 mph - N/A   Clear
7:55 PM 54.9 °F - 16.0 °F 22% 30.16 in 10.0 mi WSW 8.1 mph - N/A   Clear
8:15 PM 53.1 °F - 16.5 °F 24% 30.17 in 10.0 mi WSW 8.1 mph - N/A   Clear
8:35 PM 53.6 °F - 16.3 °F 23% 30.17 in 10.0 mi SW 5.8 mph - N/A   Clear
8:55 PM 50.2 °F - 17.2 °F 27% 30.19 in 10.0 mi Calm Calm - N/A   Clear
9:15 PM 48.2 °F - 33.3 °F 56% 30.20 in 10.0 mi SSE 5.8 mph - N/A   Clear
9:35 PM 46.6 °F - 34.3 °F 62% 30.19 in 10.0 mi SE 8.1 mph - N/A   Clear
9:55 PM 45.7 °F 39.8 °F 34.0 °F 64% 30.20 in 10.0 mi SE 12.7 mph - N/A   Clear
10:15 PM 45.1 °F 40.3 °F 33.8 °F 65% 30.20 in 10.0 mi SE 9.2 mph - N/A   Clear
10:35 PM 44.6 °F 39.7 °F 33.3 °F 64% 30.21 in 10.0 mi SE 9.2 mph - N/A   Clear
10:55 PM 44.2 °F 40.3 °F 32.9 °F 64% 30.21 in 10.0 mi SE 6.9 mph - N/A   Clear
11:35 PM 43.2 °F 38.4 °F 33.6 °F 69% 30.22 in 10.0 mi SE 8.1 mph - N/A   Clear
11:55 PM 42.8 °F - 33.8 °F 70% 30.22 in 10.0 mi Calm Calm - N/A   Clear